SL-12 R/B(2), 15334

Orbit data source: Space-Track

SL-12 R/B(2), 15334 is space debris in LEO originally from a launch on Fri, 28 Sep 1984 UTC launched from the Tyuratam Missile And Space Complex (TTMTR). Debris objects in space refer to the collection of defunct objects orbiting the Earth. Examples of debris include non-operational satellites, rocket bodies, and fragments generated from explosions, collisions, or faulty payload assembly.

Loading next visibility...
Identifier
15334, 1984-106B
Orbit
LEO
Country
Flag of CISCIS
Related business
Manufacturer
NPO Energiya
Mission
Spacecraft
Bus & Motor
BLOK DM, Unknown motor
Mass
2,660 kg wet, 2,440 kg dry
Launch date (UTC)
1984-09-28 (41 years ago)
Launch vehicle
Unknown
Launch site
Tyuratam Missile And Space Complex (TTMTR)
Object type
Payload
Rocket body
Debris
Shape & HBR
Unknown
Radar Cross Section
Large (>1 m²)

Expand to show TLE details & history
Last TLE update: 10 hours ago

TLE from 10 hours ago
0 SL-12 R/B(2)
1 15334U 84106B   25307.77338942 -.00000102  00000-0 -27898-4 0  9998
2 15334  71.0009  93.2985 0005559 311.3991  48.6654 14.15600201  2018
Epoch: 2025-11-03T18:33Z
TLE epoch observation values (Epoch: 2025-11-03T18:33:40.845Z)
Latitude
-0°
Longitude
131.60836°
Altitude
840.023 km
Speed
7.434 km/s
True Right ascension
06h 13m 11s
True Declination
0° 00' 00"
Sunlit
Object was in full shadow at epoch
Visualization orbit readout
Latitude
Unknown
Longitude
Unknown
Altitude
Unknown
Speed
Unknown
Apparent Right ascension
Unknown
Apparent Declination
Unknown
Sunlit
N/A
Visualization observer readout
Local Sidereal Time
00:15:08
Azimuth
Unknown
Elevation
Unknown
Doppler factor
Unknown
Orbital elements
Apogee altitude
842.207 km
Perigee altitude
834.184 km
Semi-major axis
7,216.332 km
Eccentricity
0.00056
Inclination
71.0009°
RAAN
93.2985°
Arg. of periapsis
311.3991°
True anomaly
48.71325°
Mean anomaly
48.6654°
Eccentric anomaly
48.68932°
Mean motion
3.54053 °/min
Orbital period
101.68 mins
BSTAR
-0.000027898
Loading maneuver chart data...
Computing Atmospheric mass density...
Loading historical data...
Loading historical data...
Loading historical data...
Loading historical data...
Loading historical data...
Loading historical data...
Loading historical data...

Documentation

Showing up to 5 results
|